Regional Weather Roundup
Issued by NWS Bismarck, ND

Home | Current Version | Previous Version | Text Only | Print | Product List | Glossary On
Versions: 1 2 3 4 5 6 7 8 9 10 11 12 13 14 15 16 17 18 19 20 21 22 23 24 25 26 27 28 29 30 31 32 33 34 35 36 37 38 39 40 41 42 43 44 45 46 47 48 49 50
000
ASUS43 KBIS 210510
RWRBIS

NWR BROADCAST TEXT
NATIONAL WEATHER SERVICE BISMARCK ND
1200 AM CDT SAT OCT 21 2017

NOTE: "FAIR" INDICATES FEW OR NO CLOUDS BELOW 12,000 FEET WITH NO
SIGNIFICANT WEATHER AND/OR OBSTRUCTIONS TO VISIBILITY.


CITY           SKY/WX    TMP DP  RH WIND       PRES   REMARKS
WILLISTON        N/A    N/A N/A N/A MISG      29.25R
MINOT          PTCLDY    66  50  56 S21G29    29.15F
MINOT AFB      PTCLDY    58  49  72 SE9       29.14F
BISMARCK       CLOUDY    63  53  70 S14       29.26S
DICKINSON      PTCLDY    62  34  35 W32G46    29.30R
GARRISON         N/A     63  51  65 S16       29.18F
HETTINGER ARPT CLEAR     61  39  44 NW24G35   29.35R
JAMESTOWN      CLEAR     63  54  72 S14       29.33S
CARRINGTON     FAIR      63  54  72 S17G24    29.31S
HAZEN          FAIR      64  50  59 S18G25    29.19F
LINTON         FAIR      63  50  63 S21G28    29.30S
RUGBY          FAIR      61  54  77 S16       29.21F
STANLEY        FAIR      50  45  81 W3        29.20S
TIOGA          FAIR      48  36  61 SW7       29.22R
WATFORD CITY   FAIR      59  30  33 W29G46    29.27R HAZE
$$

CITY           SKY/WX    TMP DP  RH WIND       PRES   REMARKS
GRAND FORKS    PTCLDY    69  56  62 S21G31    29.36F
GRAND FORKS AF PTCLDY    67  54  63 S20       29.35F
DEVILS LAKE    PTCLDY    62  53  72 S17       29.29F
FARGO          MOCLDY    68  57  68 S17G35    29.41F
CANDO          FAIR      59  57  94 S15       29.28F
CAVALIER       FAIR      66  57  72 S14G23    29.31F
GRAFTON        FAIR      66  55  68 S20G28    29.35F
GWINNER        CLEAR     66  57  72 S13G18    29.40R
LANGDON        FAIR      63  55  77 S20       29.31S
ROLLA          FAIR      50  48  93 S6        29.27F
WALHALLA       FAIR     N/A N/A N/A S16G22    29.29S
$$

CITY           SKY/WX    TMP DP  RH WIND       PRES   REMARKS
ABERDEEN       CLEAR     67  58  72 S20G26    29.38S
MOBRIDGE       CLEAR     62  53  72 SE16      29.29F
BUFFALO          N/A     56  43  61 W28G35    29.35R
RAPID CITY     MOCLDY    65  33  30 W8        29.40R
GLASGOW        CLOUDY    49  38  65 W21G29    29.42R
SIDNEY         PTCLDY    57  35  43 W39G52    29.31R
WOLF POINT     CLOUDY    54  37  52 W22G32    29.40R
GLENDIVE       MOCLDY    56  38  50 NW21G29   29.37S
MILES CITY     PTCLDY    46  45  96 W18G30    29.50R
BAKER          CLOUDY    54  42  64 NW20G30   29.41R
$$

CITY           SKY/WX    TMP DP  RH WIND       PRES   REMARKS
BILLINGS       CLOUDY    43  29  57 W17G29    29.64R
GREAT FALLS    CLOUDY    41  28  60 SW17      29.64R
REGINA         CLOUDY    43  30  61 W10       29.19R
ESTEVAN        PTCLDY    48  34  57 E6        29.15F
$$





USA.gov is the U.S. government's official web portal to all federal, state and local government web resources and services.